This demonstration page uses our WeatherBlox Daily Observations layout. Learn more.

Left ArrowRight Arrow

Hourly Observations for April 1, 2020

Temp ( °F °C ) Dew Point ( °F °C ) Humidity (%) Winds ( mph kmh ) Pressure ( in mb ) Visibility ( mi km ) Precip ( " mm )
12:53 am 00:53 Clear 49 9.4 32 0 52 52 WNW 5 7 29.99 1016 10 16 0.00 0.00
1:53 am 01:53 Clear 49 9.4 32 0 52 52 NW 5 7 29.98 1015 10 16 0.00 0.00
2:53 am 02:53 Clear 48 8.9 31 -0.6 52 52 NW 5 7 29.98 1015 10 16 0.00 0.00
3:53 am 03:53 Clear 47 8.3 30 -1.1 52 52 NW 5 7 29.98 1015 10 16 0.00 0.00
4:53 am 04:53 Clear 40 4.4 33 0.6 77 77 N 3 6 29.98 1015 10 16 0.00 0.00
5:53 am 05:53 Clear 38 3.3 33 0.6 83 83 undefined N/A 29.98 1015 10 16 0.00 0.00
6:53 am 06:53 Sunny 42 5.6 31 -0.6 65 65 N 3 6 29.99 1016 10 16 0.00 0.00
7:53 am 07:53 Sunny 47 8.3 29 -1.7 50 50 NNW 7 11 30.00 1016 10 16 0.00 0.00
8:53 am 08:53 Sunny 50 10 28 -2.2 43 43 NNW 8 13 30.00 1016 10 16 0.00 0.00
9:53 am 09:53 Sunny 53 11.7 26 -3.3 35 35 N 13 20 30.01 1016 10 16 0.00 0.00
10:53 am 10:53 Sunny 54 12.2 26 -3.3 34 34 N 14 22 30.01 1016 10 16 0.00 0.00
11:53 am 11:53 Sunny 56 13.3 24 -4.4 29 29 N 14 22 29.99 1016 10 16 0.00 0.00
12:53 pm 12:53 Sunny 58 14.4 23 -5 26 26 N 12 19 29.98 1015 10 16 0.00 0.00
1:53 pm 13:53 Sunny 60 15.6 25 -3.9 26 26 NE 13 20 29.96 1015 10 16 0.00 0.00
2:53 pm 14:53 Sunny 62 16.7 24 -4.4 23 23 N 15 24 29.93 1014 10 16 0.00 0.00
3:53 pm 15:53 Mostly Sunny 63 17.2 21 -6.1 20 20 W 9 15 29.93 1013 10 16 0.00 0.00
4:53 pm 16:53 Sunny 62 16.7 19 -7.2 19 19 N 8 13 29.93 1013 10 16 0.00 0.00
5:53 pm 17:53 Mostly Sunny 61 16.1 18 -7.8 19 19 NNW 7 11 29.93 1014 10 16 0.00 0.00
6:53 pm 18:53 Cloudy 59 15 21 -6.1 23 23 Calm 29.94 1014 10 16 0.00 0.00
7:53 pm 19:53 Partly Cloudy 57 13.9 18 -7.8 22 22 NNW 5 7 29.96 1015 10 16 0.00 0.00
8:53 pm 20:53 Clear 55 12.8 24 -4.4 30 30 N 8 13 29.99 1016 10 16 0.00 0.00
9:53 pm 21:53 Clear 54 12.2 27 -2.8 35 35 NNW 9 15 30.01 1016 10 16 0.00 0.00
10:53 pm 22:53 Clear 51 10.6 24 -4.4 35 35 N 7 11 30.03 1017 10 16 0.00 0.00
11:53 pm 23:53 Clear 47 8.3 26 -3.3 44 44 NNE 8 13 30.05 1018 10 16 0.00 0.00

Powered by AerisWeather